TimeCDT,TemperatureF,Dew PointF,Humidity,Sea Level PressureIn,VisibilityMPH,Wind Direction,Wind SpeedMPH,Gust SpeedMPH,PrecipitationIn,Events,Conditions,WindDirDegrees,DateUTC
12:14 AM,62.6,59.0,88,30.07,10.0,Calm,Calm,-,N/A,,Clear,0,2013-07-31 05:14:00
12:33 AM,62.6,59.0,88,30.08,7.0,Calm,Calm,-,N/A,,Clear,0,2013-07-31 05:33:00
12:53 AM,60.8,57.2,88,30.07,10.0,Calm,Calm,-,N/A,,Clear,0,2013-07-31 05:53:00
1:14 AM,60.8,57.2,88,30.08,0.8,Calm,Calm,-,N/A,,Mostly Cloudy,0,2013-07-31 06:14:00
1:53 AM,60.8,55.4,82,30.07,7.0,Calm,Calm,-,N/A,,Clear,0,2013-07-31 06:53:00
2:13 AM,60.8,57.2,88,30.07,2.0,Calm,Calm,-,N/A,,Clear,0,2013-07-31 07:13:00
2:33 AM,59.0,57.2,94,30.07,0.5,Calm,Calm,-,N/A,Fog,Fog,0,2013-07-31 07:33:00
2:54 AM,57.2,55.4,94,30.08,1.5,SW,3.5,-,N/A,,Mostly Cloudy,230,2013-07-31 07:54:00
3:13 AM,59.0,57.2,94,30.09,3.0,West,5.8,-,N/A,,Scattered Clouds,270,2013-07-31 08:13:00
3:34 AM,60.8,57.2,88,30.09,2.5,WNW,3.5,-,N/A,,Scattered Clouds,290,2013-07-31 08:34:00
3:53 AM,60.8,57.2,88,30.08,1.8,NW,3.5,-,N/A,,Mostly Cloudy,320,2013-07-31 08:53:00
4:13 AM,59.0,55.4,88,30.08,2.5,Calm,Calm,-,N/A,,Clear,0,2013-07-31 09:13:00
4:33 AM,57.2,55.4,94,30.07,1.5,Calm,Calm,-,N/A,,Mostly Cloudy,0,2013-07-31 09:33:00
4:54 AM,57.2,55.4,94,30.08,1.0,Calm,Calm,-,N/A,,Mostly Cloudy,0,2013-07-31 09:54:00
5:13 AM,57.2,55.4,94,30.08,1.8,West,3.5,-,N/A,,Clear,260,2013-07-31 10:13:00
5:33 AM,57.2,55.4,94,30.08,2.5,WSW,3.5,-,N/A,,Clear,240,2013-07-31 10:33:00
5:53 AM,57.2,55.4,94,30.08,2.0,WSW,3.5,-,N/A,,Clear,240,2013-07-31 10:53:00
6:13 AM,59.0,57.2,94,30.08,3.0,Calm,Calm,-,N/A,,Clear,0,2013-07-31 11:13:00
6:34 AM,60.8,57.2,88,30.09,4.0,Calm,Calm,-,N/A,,Clear,0,2013-07-31 11:34:00
6:53 AM,60.8,59.0,94,30.10,5.0,West,3.5,-,N/A,,Scattered Clouds,270,2013-07-31 11:53:00
7:13 AM,62.6,60.8,94,30.10,5.0,WNW,3.5,-,N/A,Rain,Light Rain,290,2013-07-31 12:13:00
7:33 AM,62.6,60.8,94,30.10,7.0,West,3.5,-,N/A,Rain,Light Rain,270,2013-07-31 12:33:00
7:53 AM,62.6,60.8,94,30.09,5.0,Calm,Calm,-,N/A,Rain,Light Rain,0,2013-07-31 12:53:00
8:13 AM,62.6,60.8,94,30.09,5.0,Calm,Calm,-,N/A,,Clear,0,2013-07-31 13:13:00
8:33 AM,62.6,60.8,94,30.10,7.0,Calm,Calm,-,N/A,,Clear,0,2013-07-31 13:33:00
8:53 AM,64.4,62.6,94,30.11,10.0,West,6.9,-,N/A,,Clear,270,2013-07-31 13:53:00
9:13 AM,64.4,62.6,94,30.11,10.0,WSW,8.1,-,N/A,,Clear,240,2013-07-31 14:13:00
9:33 AM,64.4,62.6,94,30.12,10.0,West,8.1,-,N/A,,Scattered Clouds,270,2013-07-31 14:33:00
9:54 AM,64.4,60.8,88,30.11,10.0,West,4.6,-,N/A,,Light Drizzle,280,2013-07-31 14:54:00
10:13 AM,66.2,62.6,88,30.10,10.0,West,3.5,-,N/A,,Clear,270,2013-07-31 15:13:00
10:34 AM,66.2,60.8,83,30.09,10.0,NW,5.8,-,N/A,,Clear,310,2013-07-31 15:34:00
10:53 AM,69.8,62.6,78,30.10,10.0,NW,5.8,-,N/A,,Clear,310,2013-07-31 15:53:00
11:14 AM,71.6,60.8,69,30.10,10.0,NW,6.9,-,N/A,,Clear,320,2013-07-31 16:14:00
11:33 AM,73.4,60.8,65,30.10,10.0,NNW,6.9,-,N/A,,Clear,340,2013-07-31 16:33:00
11:53 AM,75.2,59.0,57,30.10,10.0,NNW,9.2,-,N/A,,Clear,340,2013-07-31 16:53:00
12:13 PM,75.2,59.0,57,30.10,10.0,NW,6.9,-,N/A,,Clear,310,2013-07-31 17:13:00
12:34 PM,77.0,55.4,47,30.10,10.0,WNW,9.2,-,N/A,,Clear,290,2013-07-31 17:34:00
12:53 PM,78.8,57.2,47,30.10,10.0,NW,6.9,-,N/A,,Clear,310,2013-07-31 17:53:00
1:13 PM,78.8,57.2,47,30.09,10.0,NW,8.1,-,N/A,,Clear,310,2013-07-31 18:13:00
1:33 PM,78.8,55.4,44,30.09,10.0,NW,10.4,-,N/A,,Clear,320,2013-07-31 18:33:00
1:53 PM,80.6,53.6,39,30.09,10.0,WNW,15.0,-,N/A,,Clear,290,2013-07-31 18:53:00
2:13 PM,80.6,53.6,39,30.09,10.0,West,10.4,18.4,N/A,,Clear,280,2013-07-31 19:13:00
2:33 PM,80.6,55.4,42,30.08,10.0,WNW,6.9,-,N/A,,Scattered Clouds,300,2013-07-31 19:33:00
2:53 PM,78.8,55.4,44,30.08,10.0,WNW,8.1,-,N/A,,Mostly Cloudy,290,2013-07-31 19:53:00
3:13 PM,78.8,55.4,44,30.08,10.0,WNW,12.7,16.1,N/A,,Scattered Clouds,300,2013-07-31 20:13:00
3:33 PM,80.6,55.4,42,30.08,10.0,NW,10.4,-,N/A,,Clear,310,2013-07-31 20:33:00
3:53 PM,78.8,55.4,44,30.07,10.0,WNW,10.4,-,N/A,,Clear,290,2013-07-31 20:53:00
4:13 PM,80.6,51.8,37,30.07,10.0,NW,15.0,21.9,N/A,,Clear,320,2013-07-31 21:13:00
4:33 PM,80.6,48.2,32,30.07,10.0,NW,15.0,20.7,N/A,,Clear,320,2013-07-31 21:33:00
4:53 PM,80.6,48.2,32,30.06,10.0,NW,13.8,-,N/A,,Clear,320,2013-07-31 21:53:00
5:14 PM,80.6,48.2,32,30.06,10.0,NW,13.8,-,N/A,,Clear,310,2013-07-31 22:14:00
5:33 PM,80.6,48.2,32,30.06,10.0,NW,11.5,20.7,N/A,,Clear,320,2013-07-31 22:33:00
5:53 PM,80.6,48.2,32,30.06,10.0,NW,13.8,19.6,N/A,,Clear,320,2013-07-31 22:53:00
6:13 PM,78.8,48.2,34,30.05,10.0,NW,12.7,-,N/A,,Clear,320,2013-07-31 23:13:00
6:33 PM,78.8,50.0,36,30.04,10.0,NW,10.4,-,N/A,,Clear,320,2013-07-31 23:33:00
6:53 PM,78.8,48.2,34,30.04,10.0,NW,9.2,-,N/A,,Clear,320,2013-07-31 23:53:00
7:13 PM,77.0,50.0,39,30.04,10.0,NW,9.2,-,N/A,,Clear,320,2013-08-01 00:13:00
7:33 PM,75.2,51.8,44,30.04,10.0,NW,8.1,-,N/A,,Clear,320,2013-08-01 00:33:00
7:53 PM,75.2,50.0,41,30.04,10.0,NNW,9.2,-,N/A,,Clear,330,2013-08-01 00:53:00
8:14 PM,73.4,51.8,47,30.04,10.0,NW,5.8,-,N/A,,Clear,320,2013-08-01 01:14:00
8:33 PM,69.8,53.6,56,30.04,10.0,NW,5.8,-,N/A,,Clear,320,2013-08-01 01:33:00
8:53 PM,66.2,53.6,64,30.05,10.0,NW,3.5,-,N/A,,Clear,320,2013-08-01 01:53:00
9:13 PM,64.4,53.6,68,30.05,10.0,NNW,4.6,-,N/A,,Clear,340,2013-08-01 02:13:00
9:34 PM,62.6,53.6,72,30.06,7.0,NNW,6.9,-,N/A,,Clear,340,2013-08-01 02:34:00
9:54 PM,62.6,53.6,72,30.06,10.0,NNW,3.5,-,N/A,,Clear,340,2013-08-01 02:54:00
10:13 PM,62.6,51.8,68,30.06,10.0,NNW,4.6,-,N/A,,Clear,340,2013-08-01 03:13:00
10:34 PM,60.8,51.8,72,30.06,10.0,Calm,Calm,-,N/A,,Clear,0,2013-08-01 03:34:00
10:53 PM,59.0,51.8,77,30.06,10.0,Calm,Calm,-,N/A,,Clear,0,2013-08-01 03:53:00
11:13 PM,60.8,51.8,72,30.06,10.0,Calm,Calm,-,N/A,,Clear,0,2013-08-01 04:13:00
11:33 PM,57.2,51.8,82,30.06,10.0,Calm,Calm,-,N/A,,Clear,0,2013-08-01 04:33:00
11:53 PM,55.4,51.8,88,30.06,10.0,Calm,Calm,-,N/A,,Clear,0,2013-08-01 04:53:00